STARLINK-34834 (65295 NORAD) Tracking and Keplerian Element Data

This shows tracking and keplerian element data for the satellite.

Feedback or suggestion? Click here.




ElementValue
Catalog65295
NameSTARLINK-34834
Epoch Orbit1931
Epoch Day354.06144369
Epoch Year2025
RAAN44.0837
Inclination97.6048
Eccentricity0.000104
Argument of Perigee97.504
Mean Anonmoly262.6305
Mean Motion15.05650391
Decay Rate1.75E-05
L11 65295U 25184Y 25354.06144369 .00001750 00000+0 12550-3 0 9997
L22 65295 97.6048 44.0837 0001040 97.5040 262.6305 15.05650391 19312



Live tracking and technical data element details for STARLINK-34834 (NORAD 65295). STARLINK-34834 can be tracked NOW for your location showing map with azimuth and elevation plus other details from your city location.







IsCatalogInMostPopularTable: catalog: 65295, numindb: 9
Update: records affected: 1



GetName: 65295 STARLINK-34834

Hit Count: updated at: Mon, 20 Apr 2026 10:01:57 GMT